WetterOnline ( https://www.wetteronline.de )

Wetter aktuell Inzell

Aktuelles Wetter: Salzburg Flughafen (450m)

6-stündlich | Neueste Meldungen
Ortszeit Temperatur Wetter
Fr, 14.05. 8:00 9.2° C wolkig
Fr, 14.05. 2:00 9.2° C leichter Regen
Do, 13.05. 20:00 9.5° C bedeckt
Do, 13.05. 14:00 10.4° C leichter Regen
Do, 13.05. 8:00 8.4° C leichter Regen
Do, 13.05. 2:00 9.1° C leichter Regen
Mi, 12.05. 20:00 10.9° C bedeckt
Mi, 12.05. 14:00 10.9° C Regen
Ortszeit Temperatur Wetter
Fr, 14.05. 9:50 13° C leicht bewölkt
Fr, 14.05. 9:20 12° C leicht bewölkt
Fr, 14.05. 9:00 11.7° C leicht bewölkt
Fr, 14.05. 8:50 12° C leicht bewölkt
Fr, 14.05. 8:20 11° C leicht bewölkt
Fr, 14.05. 8:00 9.2° C wolkig
Fr, 14.05. 7:50 9° C bewölkt
Fr, 14.05. 7:20 9° C bewölkt
Fr, 14.05. 7:00 8.2° C bewölkt
Fr, 14.05. 6:20 8° C bewölkt
Ortszeit Relative Feuchte Sichtweite
Fr, 14.05. 8:00 92% 55 km
Fr, 14.05. 2:00 86% 29 km
Do, 13.05. 20:00 94% 45 km
Do, 13.05. 14:00 84% 29 km
Do, 13.05. 8:00 91% 15 km
Do, 13.05. 2:00 95% 21 km
Mi, 12.05. 20:00 85% 70 km
Mi, 12.05. 14:00 87% 10 km
Ortszeit Relative Feuchte Sichtweite
Fr, 14.05. 9:50 54% >10 km
Fr, 14.05. 9:20 62% >10 km
Fr, 14.05. 9:00 75% 50 km
Fr, 14.05. 8:50 77% >10 km
Fr, 14.05. 8:20 82% >10 km
Fr, 14.05. 8:00 92% 55 km
Fr, 14.05. 7:50 93% >10 km
Fr, 14.05. 7:20 93% >10 km
Fr, 14.05. 7:00 96% 50 km
Fr, 14.05. 6:20 93% >10 km
Ortszeit Niederschlagsmenge Niederschlagsart
Fr, 14.05. 8:00 4 l/m2 in 12 Std. -
Fr, 14.05. 2:00 4 l/m2 in 6 Std. -
Do, 13.05. 20:00 14 l/m2 in 12 Std. -
Do, 13.05. 14:00 12 l/m2 in 6 Std. -
Do, 13.05. 8:00 15 l/m2 in 12 Std. -
Do, 13.05. 2:00 3 l/m2 in 6 Std. -
Mi, 12.05. 20:00 7 l/m2 in 12 Std. -
Mi, 12.05. 14:00 4 l/m2 in 6 Std. -
Ortszeit Niederschlagsmenge Niederschlagsart
Fr, 14.05. 9:50 keine Meldung -
Fr, 14.05. 9:20 keine Meldung -
Fr, 14.05. 9:00 0.0 l/m2 in 1 Std. -
Fr, 14.05. 8:50 keine Meldung -
Fr, 14.05. 8:20 keine Meldung -
Fr, 14.05. 8:00 keine Meldung -
Fr, 14.05. 7:50 keine Meldung -
Fr, 14.05. 7:20 keine Meldung -
Fr, 14.05. 7:00 0.0 l/m2 in 1 Std. -
Fr, 14.05. 6:20 keine Meldung -
Ortszeit Stärke Spitze Richtung
km/h Bft. km/h Grad Sektor
Fr, 14.05. 8:00 7 2 - - -
Fr, 14.05. 2:00 4 1 - - -
Do, 13.05. 20:00 14 3 - 160° S
Do, 13.05. 14:00 14 3 - 220° SW
Do, 13.05. 8:00 14 3 - 220° SW
Do, 13.05. 2:00 7 2 - - -
Mi, 12.05. 20:00 7 2 - - -
Mi, 12.05. 14:00 11 2 - - -
Ortszeit Stärke Spitze Richtung
km/h Bft. km/h Grad Sektor
Fr, 14.05. 9:50 13 3 - 220° SW
Fr, 14.05. 9:20 11 2 - 160° S
Fr, 14.05. 9:00 11 2 - - -
Fr, 14.05. 8:50 9 2 - 150° SO
Fr, 14.05. 8:20 7 2 - 160° S
Fr, 14.05. 8:00 7 2 - - -
Fr, 14.05. 7:50 7 2 - 160° S
Fr, 14.05. 7:20 7 2 - 160° S
Fr, 14.05. 7:00 11 2 - - -
Fr, 14.05. 6:20 9 2 - 160° S
Ortszeit Untergrenze Bedeckung Gattung
total tief tief mittel hoch
Fr, 14.05. 8:00 150 m 6/8 5/8 St Ac -
Fr, 14.05. 2:00 720 m 8/8 6/8 - - -
Do, 13.05. 20:00 360 m 8/8 6/8 Cu - -
Do, 13.05. 14:00 240 m 8/8 5/8 St - -
Do, 13.05. 8:00 240 m 8/8 5/8 St - -
Do, 13.05. 2:00 240 m 8/8 5/8 - - -
Mi, 12.05. 20:00 360 m 8/8 6/8 St - -
Mi, 12.05. 14:00 270 m 8/8 5/8 St - -
Ortszeit Bedeckungsgrad in Achtel und Wolkenuntergrenze
Fr, 14.05. 9:50 1-2(1140m)
Fr, 14.05. 9:20 1-2(300m)
Fr, 14.05. 9:00 1(450m) 3(9000m)
Fr, 14.05. 8:50 1-2(450m)
Fr, 14.05. 8:20 1-2(450m) 3-4(2700m)
Fr, 14.05. 8:00 1(150m) 3(1500m) 5(2700m)
Fr, 14.05. 7:50 1-2(150m) 3-4(1500m) 7(2700m)
Fr, 14.05. 7:20 1-2(150m) 3-4(1500m) 7(1800m)
Fr, 14.05. 7:00 1(150m) 3(1440m) 5(1500m)
Fr, 14.05. 6:20 1-2(150m) 3-4(1440m) 7(1500m)
Ortszeit Luftdruck NN (hPa) Tendenz (hPa in 3 Std.)
Fr, 14.05. 8:00 1010 + 0,6
Fr, 14.05. 2:00 1010 + 0,2
Do, 13.05. 20:00 1008 0,0
Do, 13.05. 14:00 1008 - 0,5
Do, 13.05. 8:00 1008 - 0,2
Do, 13.05. 2:00 1010 - 1,1
Mi, 12.05. 20:00 1011 - 0,3
Mi, 12.05. 14:00 1011 - 0,1
Ortszeit Luftdruck NN (hPa) Tendenz (hPa in 3 Std.)
Fr, 14.05. 9:50 1009 keine Meldung
Fr, 14.05. 9:20 1009 keine Meldung
Fr, 14.05. 9:00 1010 + 0,4
Fr, 14.05. 8:50 1009 keine Meldung
Fr, 14.05. 8:20 1009 keine Meldung
Fr, 14.05. 8:00 1010 + 0,6
Fr, 14.05. 7:50 1009 keine Meldung
Fr, 14.05. 7:20 1009 keine Meldung
Fr, 14.05. 7:00 1010 + 0,5
Fr, 14.05. 6:20 1009 keine Meldung
Ortszeit Schneehöhe (cm)
Fr, 14.05. 8:00 0
Fr, 14.05. 2:00 -
Do, 13.05. 20:00 -
Do, 13.05. 14:00 -
Do, 13.05. 8:00 -
Do, 13.05. 2:00 -
Mi, 12.05. 20:00 -
Mi, 12.05. 14:00 -
Ortszeit Schneehöhe (cm)
Fr, 14.05. 9:50 -
Fr, 14.05. 9:20 -
Fr, 14.05. 9:00 -
Fr, 14.05. 8:50 -
Fr, 14.05. 8:20 -
Fr, 14.05. 8:00 0
Fr, 14.05. 7:50 -
Fr, 14.05. 7:20 -
Fr, 14.05. 7:00 -
Fr, 14.05. 6:20 -
Link zu dieser Seite / Seite empfehlen

Das Wetter in ...